Regional Weather Roundup
Issued by NWS

Home | Current Version | Previous Version | Graphics & Text | Print | Product List | Glossary On
Versions: 1 2 3 4 5 6 7 8 9 10 11 12 13 14 15 16 17 18 19 20 21 22 23 24 25 26 27 28 29 30 31 32 33 34 35 36 37 38 39 40 41 42 43 44 45 46 47 48 49 50
000
ASUS43 KDTX 020110
RWRMI
MICHIGAN HOURLY REGIONAL WEATHER ROUNDUP
NATIONAL WEATHER SERVICE DETROIT/PONTIAC MI
900 PM EDT MON JUN 01 2015

NOTE: "FAIR" INDICATES FEW OR NO CLOUDS BELOW 12,000 FEET WITH NO
SIGNIFICANT WEATHER AND/OR OBSTRUCTION TO VISIBILITY.

MIZ047>049-052>055-059>063-066>070-074>076-081>083-020200-
SOUTHEAST LOWER MICHIGAN

CITY           SKY/WX    TMP DP  RH WIND       PRES   REMARKS
ADRIAN         CLOUDY    58  41  53 SE8       30.20R
ALMA           CLEAR     53  34  47 E7        30.23S
ANN ARBOR      MOCLDY    57  40  52 E3        30.20R
BAD AXE        PTCLDY    50  34  55 N6        30.23S
CARO           PTCLDY    53  37  53 CALM      30.22S
DETROIT CITY   MOCLDY    56  38  50 NE8       30.20S
DETROIT        MOCLDY    59  41  51 N7        30.20S
FLINT          PTCLDY    59  35  40 NE12      30.21R
GROSSE ILE     CLOUDY    55  43  62 NE7       30.19S
HILLSDALE      MOCLDY    58  42  57 CALM      30.19S
HOWELL         MOCLDY    58  37  45 NE7       30.20S

CITY           SKY/WX    TMP DP  RH WIND       PRES   REMARKS
JACKSON        MOCLDY    58  42  55 N7        30.19S
LAMBERTVILLE   CLOUDY    55  46  71 E3        30.20S
LANSING        PTCLDY    55  40  56 NE9       30.22R
LAPEER         FAIR      54  35  49 NE5       30.22S
MASON          PTCLDY    55  42  60 N6        30.21S
MONROE         CLOUDY    55  45  67 E6        30.19R
MT. CLEMENS    MOCLDY    54  40  60 NE5       30.19R
PONTIAC        MOCLDY    56  39  53 NE7       30.20R
PORT HOPE        N/A     50  39  66 CALM      30.22S
PORT HURON     MOCLDY    52  37  58 N3        30.22S
TRI CITIES     CLEAR     54  38  54 NE6       30.24S
MIDLAND        FAIR      53  35  51 NE6       30.24S
TROY           MOCLDY    58  38  46 NE8       30.22S
SAGINAW HB     PTCLDY    54  37  54 N7        30.23S
$$
MIZ043>046-050>051-056>058-064>065-071>073-077>080-020200-
SOUTHWEST LOWER MICHIGAN

CITY           SKY/WX    TMP DP  RH WIND       PRES   REMARKS
BATTLE CREEK   CLEAR     60  45  57 N7        30.20R
BENTON HARBOR  CLEAR     52  41  66 VRB5      30.19S
BIG RAPIDS     CLEAR     61  35  37 SE10G23   30.21R
COLDWATER      PTCLDY    58  42  56 E5        30.18S
FREMONT        FAIR      63  32  31 SE3       30.19S
HOLLAND        CLEAR     62  39  42 E7        30.20R
GRAND RAPIDS   PTCLDY    58  32  37 E7        30.21S
IONIA          FAIR      57  32  37 E6        30.21S
KALAMAZOO      CLEAR     62  45  53 NE6       30.20R
LUDINGTON      CLEAR     56  41  57 N7        30.20S
MARSHALL       PTCLDY    60  45  57 NE5       30.19R
MOUNT PLEASANT CLEAR     54  34  46 E6        30.23S
MUSKEGON       CLEAR     61  43  51 CALM      30.19S
SOUTH HAVEN    CLEAR     55  44  66 CALM      30.19S
$$
MIZ016>042-020200-
NORTHERN LOWER MICHIGAN

CITY           SKY/WX    TMP DP  RH WIND       PRES   REMARKS
ALPENA         LGT RAIN  58  35  42 CALM      30.25S
BEAVER ISLAND  CLEAR     51  39  64 CALM      30.25S
BELLAIRE       CLEAR     61  31  32 N5        30.22S
CADILLAC       CLEAR     60  40  47 N6        30.20S
CHARLEVOIX     CLEAR     52  40  64 CALM      30.27R
FRANKFORT      CLEAR     59  30  33 N3        30.21S
GAYLORD        CLEAR     59  28  30 E5        30.24R
GRAYLING       CLEAR     59  33  38 E7        30.24R
HARBOR SPRINGS CLEAR     56  29  36 CALM      30.24S
HOUGHTON LAKE  CLEAR     58  35  42 E6        30.23R
MANISTEE       CLEAR     54  43  66 W3        30.21S
OSCODA         CLEAR     54  34  45 N3        30.23S
PELLSTON       CLEAR     57  28  33 CALM      30.25S
ROGERS CITY    CLEAR     53  43  66 CALM      30.25S
TRAVERSE CITY  PTCLDY    57  38  48 CALM      30.21S
$$
MIZ007>008-015-020200-
EASTERN UPPER MICHIGAN

CITY           SKY/WX    TMP DP  RH WIND       PRES   REMARKS
KINROSS        CLEAR     59  34  38 W3        30.25R
MACKINAC ISLAN CLEAR     58  31  36 SE3       30.24S
NEWBERRY       CLEAR     56  37  49 S3        30.24S
S. S. MARIE    CLEAR     53  36  52 SW5       30.24R
MUNISING         N/A     49  39  68 CALM      30.24S
$$
MIZ004>006-011>014-085-020200-
CENTRAL UPPER MICHIGAN

CITY           SKY/WX    TMP DP  RH WIND       PRES   REMARKS
MANISTIQUE     CLEAR     54  34  45 CALM      30.25S
ESCANABA       CLEAR     59  28  31 CALM      30.23S
MENOMINEE      CLEAR     57  32  38 CALM      30.23S
SAWYER-GWINN   CLEAR     57  37  47 E5        30.23R
$$
MIZ001>003-009>011-084-020200-
WESTERN UPPER MICHIGAN

CITY           SKY/WX    TMP DP  RH WIND       PRES   REMARKS
IRON MOUNTAIN  CLEAR     60  33  36 S6        30.21S
HOUGHTON       PTCLDY    50  33  52 E10       30.21F
COPPER HARBOR    N/A     54  35  48 CALM      30.22S
IRONWOOD       CLEAR     61  41  48 CALM      30.14S
$$

ABBREVIATIONS USED IN REMARKS
   TC - TEMPERATURE IN CELSIUS
  WCI - WIND CHILL INDEX
   HX - HEAT INDEX
  VSB - VISIBILITY




USA.gov is the U.S. government's official web portal to all federal, state and local government web resources and services.